QPF
0.16 0.14 0.15 0.18 0.16 0.13 0.08 0.02 0.01 0.01 0.01 0.00 0.01 0.00 0.01 0.01 0.02 0.02 0.01 0.02 0.01 0.01 0.00 0.00 0.00 0.00 0.00 0.00 0.00 0.00 0.00 0.00 0.00 0.01 0.01 0.03 0.04 0.03 0.03 0.02 0.01 0.01 0.01
0.20 0.15 0.16 0.18 0.24 0.25 0.22 0.13 0.06 0.03 0.02 0.02 0.02 0.02 0.01 0.01 0.01 0.01 0.00 0.00 0.00 0.00 0.00 0.00 0.00 0.00 0.00 0.00 0.00 0.01 0.00 0.00 0.00 0.00 0.01 0.02 0.02 0.03 0.02 0.01 0.01 0.01 0.01
0.21 0.24 0.23 0.20 0.20 0.29 0.33 0.27 0.19 0.12 0.05 0.02 0.01 0.02 0.02 0.01 0.00 0.01 0.00 0.00 0.00 0.00 0.00 0.00 0.00 0.00 0.00 0.00 0.00 0.01 0.01 0.00 0.00 0.00 0.01 0.01 0.01 0.02 0.01 0.01 0.01 0.01 0.01
0.20 0.26 0.29 0.24 0.22 0.26 0.32 0.34 0.30 0.22 0.11 0.05 0.02 0.01 0.01 0.01 0.01 0.00 0.00 0.00 0.00 0.00 0.00 0.00 0.00 0.00 0.00 0.00 0.00 0.01 0.00 0.00 0.00 0.01 0.01 0.00 0.01 0.01 0.01 0.01 0.01 0.01 0.01
0.14 0.19 0.25 0.27 0.24 0.26 0.33 0.37 0.32 0.25 0.16 0.08 0.03 0.01 0.00 0.00 0.01 0.01 0.00 0.00 0.00 0.00 0.00 0.00 0.00 0.00 0.00 0.00 0.00 0.01 0.00 0.00 0.00 0.00 0.00 0.00 0.00 0.01 0.01 0.01 0.01 0.01 0.01
0.09 0.10 0.12 0.15 0.17 0.20 0.25 0.36 0.40 0.30 0.22 0.14 0.08 0.04 0.01 0.01 0.01 0.01 0.01 0.01 0.01 0.00 0.00 0.00 0.00 0.00 0.00 0.00 0.00 0.00 0.01 0.01 0.00 0.00 0.00 0.00 0.00 0.00 0.00 0.01 0.01 0.01 0.02
0.05 0.08 0.09 0.09 0.11 0.13 0.16 0.26 0.36 0.29 0.23 0.19 0.16 0.12 0.07 0.05 0.03 0.02 0.02 0.01 0.01 0.01 0.01 0.00 0.00 0.00 0.00 0.00 0.00 0.00 0.00 0.01 0.01 0.01 0.01 0.00 0.00 0.00 0.00 0.01 0.01 0.01 0.02
0.04 0.06 0.06 0.06 0.07 0.10 0.14 0.18 0.25 0.27 0.23 0.19 0.18 0.17 0.13 0.09 0.07 0.05 0.03 0.02 0.01 0.01 0.01 0.00 0.01 0.01 0.00 0.00 0.00 0.00 0.00 0.00 0.01 0.01 0.01 0.01 0.01 0.00 0.00 0.01 0.01 0.01 0.02
0.04 0.05 0.06 0.07 0.08 0.09 0.10 0.13 0.17 0.21 0.21 0.19 0.17 0.15 0.11 0.08 0.08 0.08 0.08 0.07 0.06 0.04 0.03 0.02 0.01 0.02 0.02 0.02 0.01 0.00 0.00 0.00 0.01 0.01 0.01 0.01 0.00 0.00 0.01 0.01 0.01 0.01 0.01
0.05 0.07 0.08 0.08 0.10 0.12 0.12 0.13 0.16 0.19 0.19 0.20 0.19 0.15 0.11 0.08 0.07 0.08 0.10 0.13 0.12 0.08 0.06 0.04 0.03 0.02 0.01 0.02 0.02 0.02 0.00 0.00 0.01 0.01 0.00 0.00 0.00 0.00 0.00 0.00 0.00 0.01 0.01
0.08 0.09 0.10 0.12 0.12 0.16 0.17 0.17 0.20 0.25 0.27 0.25 0.22 0.20 0.17 0.13 0.08 0.05 0.07 0.13 0.16 0.12 0.09 0.07 0.05 0.04 0.03 0.03 0.04 0.05 0.02 0.00 0.01 0.01 0.01 0.01 0.00 0.00 0.00 0.00 0.00 0.01 0.01
0.08 0.09 0.11 0.12 0.13 0.18 0.22 0.26 0.28 0.30 0.33 0.35 0.35 0.28 0.22 0.18 0.13 0.09 0.06 0.08 0.15 0.17 0.14 0.11 0.08 0.06 0.06 0.06 0.05 0.06 0.04 0.01 0.01 0.01 0.02 0.01 0.01 0.01 0.01 0.01 0.01 0.01 0.01
0.11 0.11 0.12 0.12 0.13 0.16 0.20 0.24 0.28 0.30 0.32 0.35 0.39 0.38 0.29 0.21 0.16 0.14 0.11 0.07 0.07 0.11 0.14 0.13 0.11 0.11 0.10 0.10 0.09 0.07 0.04 0.03 0.02 0.02 0.02 0.02 0.02 0.02 0.02 0.02 0.02 0.02 0.02
0.13 0.14 0.16 0.16 0.17 0.17 0.19 0.20 0.21 0.25 0.30 0.35 0.39 0.40 0.35 0.28 0.21 0.17 0.14 0.12 0.07 0.05 0.07 0.09 0.11 0.11 0.11 0.12 0.15 0.13 0.09 0.06 0.05 0.03 0.02 0.02 0.02 0.02 0.02 0.02 0.03 0.04 0.04
0.15 0.14 0.19 0.21 0.22 0.21 0.20 0.22 0.20 0.22 0.26 0.30 0.36 0.41 0.37 0.34 0.30 0.24 0.20 0.16 0.12 0.07 0.05 0.05 0.07 0.08 0.09 0.11 0.14 0.16 0.13 0.08 0.06 0.05 0.04 0.02 0.02 0.01 0.02 0.02 0.02 0.02 0.02
0.15 0.15 0.19 0.23 0.22 0.19 0.21 0.23 0.24 0.27 0.28 0.27 0.28 0.33 0.35 0.37 0.41 0.37 0.29 0.23 0.17 0.11 0.07 0.05 0.04 0.06 0.07 0.07 0.09 0.11 0.11 0.07 0.05 0.04 0.03 0.03 0.02 0.01 0.01 0.01 0.01 0.01 0.01
0.10 0.12 0.15 0.17 0.18 0.17 0.18 0.19 0.20 0.20 0.23 0.27 0.28 0.28 0.31 0.32 0.35 0.38 0.34 0.27 0.20 0.14 0.10 0.07 0.05 0.05 0.06 0.06 0.06 0.07 0.07 0.05 0.05 0.05 0.05 0.04 0.04 0.03 0.02 0.01 0.02 0.01 0.00
0.04 0.05 0.07 0.08 0.11 0.15 0.15 0.16 0.16 0.16 0.17 0.18 0.20 0.22 0.26 0.26 0.24 0.25 0.24 0.23 0.20 0.15 0.11 0.09 0.08 0.06 0.05 0.05 0.06 0.07 0.08 0.06 0.06 0.09 0.10 0.09 0.07 0.05 0.03 0.03 0.02 0.01 0.01
0.02 0.02 0.04 0.04 0.06 0.11 0.13 0.12 0.12 0.12 0.13 0.14 0.15 0.15 0.16 0.21 0.20 0.17 0.15 0.15 0.15 0.14 0.11 0.10 0.10 0.09 0.06 0.04 0.03 0.05 0.09 0.09 0.09 0.11 0.12 0.10 0.08 0.06 0.05 0.04 0.02 0.01 0.00
0.01 0.01 0.02 0.04 0.04 0.05 0.07 0.08 0.08 0.07 0.08 0.08 0.10 0.10 0.10 0.11 0.13 0.12 0.11 0.09 0.09 0.09 0.09 0.07 0.07 0.06 0.05 0.05 0.04 0.04 0.06 0.09 0.11 0.11 0.11 0.09 0.08 0.06 0.05 0.03 0.01 0.01 0.01
0.00 0.00 0.01 0.01 0.02 0.02 0.03 0.03 0.04 0.06 0.05 0.05 0.06 0.06 0.06 0.07 0.07 0.08 0.09 0.08 0.07 0.06 0.06 0.06 0.05 0.04 0.04 0.04 0.04 0.05 0.07 0.09 0.12 0.12 0.10 0.08 0.06 0.04 0.03 0.03 0.02 0.02 0.01
0.00 0.00 0.00 0.00 0.00 0.01 0.01 0.02 0.02 0.02 0.03 0.03 0.04 0.04 0.04 0.05 0.05 0.05 0.04 0.05 0.06 0.05 0.04 0.04 0.05 0.03 0.02 0.03 0.03 0.05 0.06 0.07 0.12 0.12 0.09 0.09 0.07 0.05 0.03 0.02 0.02 0.01 0.01
0.00 0.00 0.00 0.00 0.00 0.00 0.00 0.00 0.01 0.01 0.02 0.02 0.01 0.02 0.04 0.04 0.04 0.03 0.04 0.04 0.04 0.04 0.03 0.03 0.03 0.03 0.03 0.03 0.04 0.06 0.08 0.08 0.07 0.08 0.06 0.08 0.08 0.05 0.03 0.02 0.02 0.01 0.00
0.00 0.00 0.00 0.00 0.00 0.00 0.00 0.01 0.01 0.02 0.02 0.02 0.02 0.02 0.04 0.04 0.04 0.03 0.03 0.02 0.02 0.02 0.03 0.03 0.03 0.03 0.03 0.05 0.07 0.09 0.10 0.09 0.08 0.07 0.06 0.07 0.08 0.05 0.02 0.01 0.01 0.00 0.00
0.00 0.00 0.00 0.00 0.00 0.00 0.00 0.01 0.02 0.03 0.04 0.04 0.03 0.02 0.04 0.04 0.04 0.05 0.04 0.03 0.02 0.02 0.03 0.03 0.04 0.04 0.06 0.07 0.09 0.09 0.08 0.06 0.06 0.06 0.04 0.03 0.04 0.04 0.02 0.01 0.00 0.00 0.00
0.00 0.00 0.00 0.00 0.00 0.00 0.00 0.01 0.03 0.03 0.04 0.04 0.03 0.02 0.06 0.07 0.05 0.05 0.05 0.04 0.03 0.03 0.02 0.03 0.04 0.07 0.08 0.08 0.10 0.10 0.09 0.05 0.03 0.03 0.02 0.01 0.02 0.02 0.02 0.01 0.00 0.00 0.00
MSLP
1014.25 1014.22 1014.20 1014.22 1014.30 1014.46 1014.67 1014.93 1015.19 1015.43 1015.62 1015.75 1015.81 1015.83 1015.84 1015.87 1015.93 1016.03 1016.18 1016.36 1016.56 1016.74 1016.92 1017.07 1017.21 1017.32 1017.43 1017.54 1017.64 1017.74 1017.85 1017.95 1018.06 1018.18 1018.33 1018.50 1018.70 1018.90 1019.10 1019.27 1019.40 1019.48 1019.51
1013.79 1013.73 1013.69 1013.72 1013.82 1014.01 1014.26 1014.56 1014.87 1015.15 1015.38 1015.53 1015.62 1015.65 1015.67 1015.69 1015.73 1015.82 1015.95 1016.12 1016.32 1016.52 1016.73 1016.93 1017.11 1017.28 1017.43 1017.57 1017.70 1017.83 1017.94 1018.06 1018.18 1018.32 1018.49 1018.68 1018.88 1019.09 1019.29 1019.45 1019.57 1019.63 1019.65
1013.38 1013.29 1013.25 1013.29 1013.42 1013.64 1013.93 1014.26 1014.60 1014.90 1015.15 1015.32 1015.42 1015.46 1015.47 1015.48 1015.50 1015.57 1015.67 1015.82 1016.01 1016.22 1016.44 1016.67 1016.90 1017.11 1017.31 1017.50 1017.66 1017.81 1017.95 1018.09 1018.23 1018.38 1018.56 1018.76 1018.97 1019.17 1019.37 1019.53 1019.64 1019.70 1019.72
1013.05 1012.95 1012.92 1012.98 1013.14 1013.38 1013.69 1014.03 1014.38 1014.69 1014.94 1015.11 1015.22 1015.26 1015.27 1015.26 1015.27 1015.31 1015.39 1015.51 1015.68 1015.88 1016.11 1016.36 1016.61 1016.86 1017.10 1017.32 1017.52 1017.70 1017.87 1018.02 1018.18 1018.35 1018.53 1018.73 1018.94 1019.15 1019.34 1019.49 1019.60 1019.67 1019.71
1012.82 1012.72 1012.70 1012.78 1012.95 1013.20 1013.51 1013.85 1014.19 1014.49 1014.73 1014.90 1015.01 1015.06 1015.07 1015.07 1015.07 1015.10 1015.16 1015.26 1015.41 1015.59 1015.81 1016.05 1016.31 1016.58 1016.84 1017.08 1017.31 1017.51 1017.70 1017.88 1018.05 1018.24 1018.43 1018.63 1018.84 1019.03 1019.21 1019.37 1019.48 1019.57 1019.62
1012.67 1012.57 1012.55 1012.63 1012.80 1013.05 1013.34 1013.66 1013.97 1014.25 1014.48 1014.65 1014.77 1014.84 1014.88 1014.90 1014.92 1014.96 1015.02 1015.12 1015.25 1015.41 1015.60 1015.83 1016.07 1016.32 1016.58 1016.82 1017.06 1017.28 1017.49 1017.69 1017.88 1018.08 1018.28 1018.49 1018.68 1018.87 1019.05 1019.19 1019.32 1019.42 1019.50
1012.55 1012.42 1012.40 1012.46 1012.62 1012.84 1013.10 1013.39 1013.67 1013.93 1014.15 1014.33 1014.48 1014.59 1014.68 1014.76 1014.83 1014.91 1015.00 1015.10 1015.22 1015.36 1015.53 1015.71 1015.92 1016.14 1016.36 1016.59 1016.81 1017.04 1017.26 1017.48 1017.70 1017.92 1018.13 1018.34 1018.54 1018.72 1018.89 1019.03 1019.15 1019.26 1019.37
1012.39 1012.23 1012.17 1012.20 1012.32 1012.50 1012.72 1012.97 1013.23 1013.47 1013.70 1013.91 1014.11 1014.29 1014.46 1014.62 1014.77 1014.91 1015.05 1015.18 1015.31 1015.44 1015.57 1015.71 1015.86 1016.02 1016.20 1016.39 1016.59 1016.81 1017.04 1017.28 1017.53 1017.77 1018.01 1018.24 1018.44 1018.62 1018.78 1018.92 1019.04 1019.16 1019.28
1012.17 1011.94 1011.82 1011.80 1011.86 1011.99 1012.17 1012.38 1012.61 1012.86 1013.11 1013.37 1013.63 1013.90 1014.16 1014.43 1014.68 1014.91 1015.12 1015.29 1015.45 1015.57 1015.68 1015.77 1015.86 1015.96 1016.08 1016.22 1016.40 1016.60 1016.84 1017.10 1017.38 1017.66 1017.94 1018.19 1018.41 1018.60 1018.75 1018.88 1019.00 1019.12 1019.25
1011.88 1011.57 1011.37 1011.27 1011.26 1011.33 1011.46 1011.64 1011.86 1012.11 1012.39 1012.70 1013.04 1013.40 1013.77 1014.14 1014.49 1014.82 1015.11 1015.34 1015.53 1015.66 1015.76 1015.82 1015.86 1015.91 1015.97 1016.07 1016.21 1016.40 1016.64 1016.93 1017.25 1017.57 1017.89 1018.18 1018.42 1018.63 1018.79 1018.92 1019.04 1019.15 1019.28
1011.57 1011.17 1010.87 1010.69 1010.60 1010.60 1010.68 1010.83 1011.03 1011.29 1011.60 1011.95 1012.35 1012.79 1013.25 1013.71 1014.16 1014.58 1014.94 1015.24 1015.48 1015.64 1015.73 1015.78 1015.80 1015.81 1015.84 1015.90 1016.02 1016.20 1016.45 1016.76 1017.11 1017.48 1017.84 1018.17 1018.45 1018.68 1018.86 1019.00 1019.11 1019.23 1019.36
1011.31 1010.82 1010.43 1010.16 1009.99 1009.92 1009.94 1010.05 1010.22 1010.47 1010.79 1011.17 1011.60 1012.09 1012.60 1013.13 1013.65 1014.13 1014.57 1014.94 1015.23 1015.43 1015.57 1015.63 1015.65 1015.65 1015.66 1015.71 1015.81 1015.99 1016.24 1016.57 1016.95 1017.35 1017.76 1018.13 1018.45 1018.71 1018.91 1019.07 1019.19 1019.31 1019.44
1011.19 1010.63 1010.16 1009.80 1009.55 1009.41 1009.36 1009.41 1009.54 1009.75 1010.04 1010.41 1010.84 1011.33 1011.86 1012.41 1012.97 1013.50 1013.99 1014.43 1014.78 1015.05 1015.24 1015.36 1015.42 1015.44 1015.46 1015.51 1015.61 1015.79 1016.05 1016.38 1016.77 1017.20 1017.63 1018.03 1018.39 1018.68 1018.91 1019.09 1019.23 1019.36 1019.50
1011.28 1010.67 1010.14 1009.71 1009.38 1009.15 1009.03 1009.00 1009.06 1009.21 1009.44 1009.75 1010.13 1010.58 1011.08 1011.62 1012.17 1012.73 1013.27 1013.76 1014.19 1014.54 1014.82 1015.01 1015.14 1015.22 1015.28 1015.35 1015.47 1015.64 1015.89 1016.22 1016.60 1017.03 1017.47 1017.88 1018.26 1018.57 1018.83 1019.04 1019.21 1019.37 1019.52
1011.59 1010.96 1010.40 1009.91 1009.51 1009.20 1008.99 1008.87 1008.83 1008.88 1009.02 1009.24 1009.53 1009.90 1010.33 1010.82 1011.35 1011.91 1012.47 1013.02 1013.52 1013.97 1014.35 1014.65 1014.87 1015.03 1015.15 1015.27 1015.40 1015.58 1015.81 1016.11 1016.47 1016.88 1017.29 1017.70 1018.08 1018.41 1018.70 1018.94 1019.14 1019.33 1019.50
1012.09 1011.47 1010.90 1010.37 1009.92 1009.53 1009.23 1009.00 1008.86 1008.80 1008.81 1008.91 1009.09 1009.35 1009.69 1010.11 1010.60 1011.14 1011.72 1012.31 1012.89 1013.43 1013.91 1014.33 1014.66 1014.91 1015.11 1015.28 1015.44 1015.61 1015.83 1016.10 1016.43 1016.79 1017.17 1017.55 1017.92 1018.26 1018.55 1018.82 1019.05 1019.27 1019.48
1012.69 1012.11 1011.54 1011.01 1010.51 1010.07 1009.68 1009.36 1009.10 1008.92 1008.81 1008.78 1008.84 1008.99 1009.23 1009.57 1010.00 1010.51 1011.09 1011.72 1012.36 1012.98 1013.56 1014.08 1014.52 1014.87 1015.15 1015.37 1015.57 1015.75 1015.96 1016.20 1016.48 1016.79 1017.13 1017.48 1017.83 1018.16 1018.46 1018.75 1019.01 1019.26 1019.49
1013.27 1012.75 1012.21 1011.69 1011.17 1010.69 1010.24 1009.84 1009.49 1009.20 1008.98 1008.84 1008.79 1008.83 1008.98 1009.24 1009.62 1010.09 1010.66 1011.30 1011.97 1012.65 1013.30 1013.90 1014.42 1014.85 1015.21 1015.49 1015.73 1015.94 1016.15 1016.38 1016.63 1016.91 1017.22 1017.54 1017.86 1018.18 1018.49 1018.78 1019.06 1019.33 1019.59
1013.75 1013.28 1012.80 1012.29 1011.79 1011.29 1010.81 1010.35 1009.93 1009.57 1009.27 1009.04 1008.91 1008.88 1008.95 1009.15 1009.47 1009.91 1010.44 1011.06 1011.73 1012.42 1013.10 1013.74 1014.31 1014.81 1015.22 1015.56 1015.85 1016.10 1016.34 1016.59 1016.84 1017.12 1017.41 1017.72 1018.04 1018.35 1018.66 1018.95 1019.25 1019.53 1019.80
1014.05 1013.65 1013.22 1012.76 1012.29 1011.80 1011.31 1010.83 1010.38 1009.98 1009.63 1009.36 1009.18 1009.10 1009.13 1009.28 1009.55 1009.93 1010.42 1010.99 1011.61 1012.27 1012.93 1013.55 1014.14 1014.65 1015.11 1015.50 1015.85 1016.16 1016.46 1016.76 1017.06 1017.37 1017.70 1018.02 1018.35 1018.67 1018.98 1019.28 1019.57 1019.85 1020.12
1014.20 1013.85 1013.48 1013.07 1012.63 1012.17 1011.70 1011.24 1010.79 1010.38 1010.03 1009.75 1009.56 1009.47 1009.48 1009.59 1009.81 1010.14 1010.55 1011.04 1011.58 1012.15 1012.73 1013.30 1013.84 1014.35 1014.82 1015.25 1015.66 1016.06 1016.44 1016.83 1017.22 1017.61 1018.00 1018.38 1018.75 1019.10 1019.42 1019.73 1020.02 1020.29 1020.54
1014.23 1013.93 1013.61 1013.25 1012.86 1012.45 1012.01 1011.57 1011.15 1010.77 1010.44 1010.18 1010.01 1009.93 1009.93 1010.03 1010.22 1010.48 1010.81 1011.19 1011.61 1012.05 1012.51 1012.98 1013.44 1013.90 1014.35 1014.82 1015.28 1015.76 1016.26 1016.77 1017.28 1017.78 1018.28 1018.74 1019.18 1019.57 1019.93 1020.24 1020.53 1020.79 1021.02
1014.24 1013.98 1013.70 1013.38 1013.03 1012.66 1012.26 1011.86 1011.47 1011.13 1010.84 1010.63 1010.49 1010.44 1010.46 1010.55 1010.70 1010.90 1011.14 1011.40 1011.68 1011.98 1012.29 1012.62 1012.97 1013.35 1013.78 1014.24 1014.76 1015.32 1015.92 1016.56 1017.21 1017.85 1018.47 1019.04 1019.56 1020.02 1020.42 1020.76 1021.04 1021.29 1021.50
1014.31 1014.08 1013.83 1013.54 1013.22 1012.87 1012.50 1012.13 1011.78 1011.47 1011.23 1011.06 1010.97 1010.95 1011.00 1011.09 1011.22 1011.37 1011.52 1011.67 1011.82 1011.96 1012.12 1012.30 1012.53 1012.82 1013.18 1013.63 1014.17 1014.80 1015.50 1016.25 1017.02 1017.79 1018.54 1019.22 1019.84 1020.37 1020.82 1021.18 1021.48 1021.73 1021.93
1014.51 1014.29 1014.06 1013.79 1013.48 1013.14 1012.78 1012.42 1012.09 1011.81 1011.59 1011.46 1011.41 1011.43 1011.50 1011.61 1011.73 1011.85 1011.94 1012.00 1012.03 1012.05 1012.07 1012.12 1012.22 1012.41 1012.71 1013.12 1013.66 1014.32 1015.08 1015.90 1016.78 1017.65 1018.49 1019.27 1019.97 1020.57 1021.07 1021.48 1021.80 1022.06 1022.26
1014.83 1014.63 1014.41 1014.15 1013.84 1013.49 1013.12 1012.75 1012.41 1012.14 1011.94 1011.83 1011.80 1011.85 1011.95 1012.08 1012.21 1012.31 1012.36 1012.37 1012.33 1012.26 1012.17 1012.12 1012.13 1012.23 1012.46 1012.82 1013.34 1013.98 1014.76 1015.62 1016.53 1017.46 1018.36 1019.20 1019.95 1020.61 1021.15 1021.60 1021.96 1022.24 1022.47
Thickness
5761 5762 5761 5762 5763 5763 5762 5762 5763 5763 5764 5765 5766 5766 5766 5765 5765 5765 5765 5764 5764 5763 5762 5761 5760 5758 5757 5756 5755 5754 5754 5753 5752 5751 5750 5749 5748 5747 5746 5745 5744 5743 5743
5757 5757 5757 5757 5758 5759 5759 5760 5760 5760 5761 5762 5764 5766 5766 5765 5764 5764 5764 5763 5763 5762 5762 5761 5759 5758 5757 5756 5755 5754 5753 5752 5751 5750 5749 5748 5746 5745 5744 5743 5742 5741 5740
5751 5752 5753 5753 5754 5755 5755 5755 5756 5757 5757 5759 5761 5764 5765 5765 5763 5762 5762 5762 5761 5761 5760 5760 5759 5758 5756 5755 5754 5753 5752 5751 5750 5749 5747 5746 5745 5743 5742 5741 5740 5738 5738
5745 5746 5748 5749 5750 5751 5752 5751 5752 5752 5752 5754 5758 5762 5764 5764 5763 5761 5760 5760 5759 5759 5759 5758 5757 5756 5755 5754 5753 5752 5751 5749 5748 5747 5746 5745 5743 5742 5740 5739 5738 5737 5735
5737 5739 5742 5744 5746 5747 5747 5748 5747 5748 5747 5749 5753 5757 5761 5762 5761 5759 5758 5757 5757 5757 5757 5756 5755 5755 5754 5753 5752 5751 5749 5748 5747 5746 5744 5743 5742 5740 5739 5737 5736 5735 5733
5729 5731 5734 5737 5739 5740 5741 5742 5741 5743 5743 5744 5748 5750 5754 5757 5758 5757 5756 5755 5754 5754 5754 5753 5753 5752 5752 5751 5750 5749 5748 5747 5745 5744 5743 5741 5740 5738 5737 5735 5734 5733 5731
5720 5723 5726 5727 5730 5732 5735 5736 5736 5736 5736 5738 5737 5737 5743 5748 5751 5753 5753 5752 5751 5751 5751 5750 5750 5750 5749 5749 5748 5747 5746 5745 5743 5742 5741 5739 5738 5736 5735 5733 5732 5730 5729
5711 5715 5717 5720 5722 5724 5727 5729 5731 5730 5731 5732 5730 5726 5726 5731 5739 5745 5748 5748 5748 5748 5747 5747 5746 5746 5747 5746 5746 5745 5744 5742 5741 5740 5738 5737 5735 5733 5732 5730 5729 5728 5726
5702 5705 5709 5712 5715 5717 5719 5723 5725 5725 5724 5726 5728 5726 5721 5720 5727 5734 5739 5742 5743 5743 5743 5743 5743 5743 5743 5743 5742 5742 5740 5739 5738 5736 5735 5733 5732 5730 5728 5727 5725 5724 5723
5693 5697 5701 5704 5707 5710 5713 5716 5720 5721 5721 5720 5721 5725 5727 5727 5722 5722 5729 5734 5737 5738 5738 5739 5739 5739 5739 5739 5739 5738 5737 5735 5734 5733 5731 5729 5728 5726 5725 5723 5721 5720 5718
5683 5688 5692 5695 5699 5703 5706 5709 5713 5716 5718 5718 5718 5718 5718 5720 5723 5720 5718 5722 5727 5731 5734 5735 5736 5736 5736 5736 5735 5734 5733 5732 5730 5729 5727 5725 5724 5722 5720 5719 5717 5715 5713
5674 5679 5683 5687 5691 5695 5699 5703 5707 5710 5713 5715 5715 5716 5715 5715 5715 5716 5715 5716 5718 5722 5727 5730 5732 5733 5734 5733 5732 5731 5730 5728 5727 5725 5723 5721 5719 5718 5716 5714 5712 5710 5708
5664 5669 5674 5678 5682 5687 5692 5697 5701 5704 5707 5709 5710 5711 5713 5714 5715 5714 5712 5711 5711 5714 5718 5723 5727 5729 5730 5730 5729 5728 5726 5724 5723 5721 5719 5717 5715 5713 5712 5710 5708 5706 5704
5657 5662 5666 5670 5674 5679 5684 5689 5693 5698 5701 5704 5706 5707 5708 5710 5711 5712 5710 5707 5704 5705 5709 5715 5720 5724 5726 5726 5726 5724 5722 5720 5718 5716 5714 5713 5710 5708 5707 5705 5703 5701 5699
5652 5654 5658 5661 5665 5670 5675 5679 5684 5688 5693 5697 5700 5702 5703 5706 5707 5708 5709 5708 5703 5699 5701 5707 5712 5717 5720 5721 5721 5720 5718 5716 5714 5712 5710 5707 5705 5703 5701 5699 5697 5695 5693
5645 5648 5650 5653 5657 5661 5666 5671 5675 5680 5684 5689 5693 5695 5697 5700 5701 5703 5704 5704 5704 5701 5699 5703 5706 5711 5714 5716 5716 5715 5713 5711 5709 5707 5705 5703 5700 5698 5696 5693 5691 5688 5686
5641 5642 5644 5647 5649 5653 5657 5662 5667 5671 5675 5680 5684 5687 5690 5693 5694 5696 5697 5698 5698 5698 5695 5697 5701 5704 5705 5708 5708 5708 5707 5706 5704 5702 5700 5697 5694 5692 5689 5687 5684 5681 5679
5636 5637 5639 5640 5643 5645 5649 5654 5658 5663 5667 5671 5676 5680 5683 5686 5688 5689 5691 5692 5693 5694 5693 5691 5693 5695 5697 5700 5701 5701 5701 5699 5698 5696 5694 5691 5688 5685 5682 5679 5677 5674 5672
5632 5633 5634 5635 5637 5640 5643 5647 5651 5656 5660 5664 5668 5672 5675 5677 5679 5682 5684 5685 5687 5689 5689 5688 5687 5689 5690 5691 5692 5692 5692 5691 5690 5688 5686 5683 5680 5677 5674 5671 5669 5667 5664
5629 5629 5630 5631 5633 5636 5638 5642 5645 5649 5653 5657 5661 5664 5666 5669 5671 5673 5675 5677 5679 5681 5682 5681 5681 5681 5682 5683 5684 5683 5681 5681 5681 5679 5676 5674 5671 5668 5665 5663 5661 5659 5657
5627 5626 5626 5627 5629 5631 5634 5637 5639 5642 5645 5649 5652 5655 5658 5661 5665 5666 5668 5669 5671 5672 5674 5674 5674 5674 5675 5675 5676 5676 5674 5672 5671 5670 5667 5664 5662 5659 5656 5654 5652 5651 5649
5624 5623 5622 5622 5623 5626 5629 5631 5633 5634 5637 5640 5642 5646 5650 5653 5656 5659 5662 5664 5665 5666 5666 5666 5667 5668 5669 5671 5671 5670 5668 5666 5661 5659 5658 5653 5652 5650 5647 5646 5645 5643 5641
5621 5619 5618 5617 5617 5619 5623 5625 5627 5627 5628 5630 5633 5637 5641 5644 5647 5650 5653 5656 5658 5660 5662 5663 5662 5663 5665 5667 5666 5663 5662 5660 5657 5653 5651 5644 5642 5640 5639 5637 5636 5635 5634
5619 5616 5614 5613 5612 5613 5616 5618 5619 5619 5620 5622 5625 5628 5631 5634 5638 5642 5644 5646 5648 5651 5655 5658 5660 5661 5663 5663 5663 5660 5657 5652 5648 5645 5644 5637 5633 5631 5629 5628 5628 5627 5626
5618 5615 5612 5609 5607 5607 5609 5610 5611 5610 5612 5613 5617 5620 5623 5627 5632 5635 5637 5638 5641 5643 5648 5651 5654 5656 5657 5658 5657 5654 5649 5646 5641 5637 5636 5633 5626 5623 5621 5620 5620 5620 5619
5618 5615 5611 5607 5604 5602 5603 5603 5603 5602 5603 5605 5609 5612 5616 5621 5625 5629 5631 5633 5635 5637 5641 5644 5646 5648 5650 5650 5650 5650 5648 5643 5638 5633 5631 5628 5623 5620 5615 5613 5613 5613 5613